This demonstration page uses our WeatherBlox Daily Observations layout. Learn more.

Left ArrowRight Arrow

39.01783, -85.05884

Hourly Observations for April 29, 2019

Temp ( °F °C ) Dew Point ( °F °C ) Humidity (%) Winds ( mph kmh ) Pressure ( in mb ) Visibility ( mi km ) Precip ( " mm )
12:52 am 00:52 Partly Cloudy 48 8.9 39 3.9 71 71 ESE 12 19 30.19 1022 10 16 N/A
2:52 am 02:52 Clear 46 7.8 39 3.9 77 77 E 9 15 30.17 1022 10 16 N/A
3:52 am 03:52 Clear 46 7.8 39 3.9 77 77 E 9 15 30.15 1021 10 16 N/A
4:52 am 04:52 Mostly Cloudy 46 7.8 39 3.9 77 77 E 8 13 30.15 1021 10 16 N/A
5:52 am 05:52 Mostly Cloudy 46 7.8 40 4.4 79 79 ESE 9 15 30.13 1020 10 16 N/A
6:52 am 06:52 Mostly Cloudy 45 7.2 40 4.4 83 83 E 7 11 30.13 1020 10 16 N/A
7:52 am 07:52 Mostly Cloudy 46 7.8 41 5 83 83 ESE 8 13 30.14 1021 10 16 N/A
8:52 am 08:52 Mostly Cloudy 48 8.9 42 5.6 80 80 ESE 12 19 30.11 1020 10 16 N/A
9:52 am 09:52 Mostly Cloudy 52 11.1 45 7.2 77 77 E 7 11 30.12 1020 10 16 N/A
10:52 am 10:52 Mostly Cloudy 57 13.9 48 8.9 72 72 SE 10 17 30.09 1019 10 16 N/A
11:52 am 11:52 Cloudy 59 15 48 8.9 67 67 S 7 11 30.10 1019 10 16 N/A
12:52 pm 12:52 Cloudy 64 17.8 51 10.6 63 63 S 13 20 30.04 1017 10 16 N/A
1:52 pm 13:52 Mostly Cloudy 68 20 55 12.8 63 63 S 14 22 30.02 1017 10 16 N/A
2:52 pm 14:52 Cloudy 70 21.1 58 14.4 66 66 S 10 17 29.96 1015 10 16 N/A
3:52 pm 15:52 Mostly Cloudy 76 24.4 60 15.6 58 58 SSW 13 20 29.92 1013 10 16 N/A
4:52 pm 16:52 Cloudy 76 24.4 58 14.4 54 54 SW 18 30 29.96 1015 10 16 N/A
5:52 pm 17:52 Mostly Cloudy 76 24.4 54 12.2 47 47 SW 22 35 29.98 1015 10 16 N/A
6:52 pm 18:52 Mostly Cloudy 75 23.9 54 12.2 48 48 WSW 13 20 29.99 1016 10 16 N/A
7:52 pm 19:52 Mostly Cloudy 73 22.8 53 11.7 50 50 W 13 20 30.01 1016 10 16 N/A
9:52 pm 21:52 Mostly Cloudy 68 20 55 12.8 63 63 WSW 5 7 30.06 1018 10 16 N/A
10:52 pm 22:52 Cloudy 68 20 55 12.8 63 63 W 5 7 30.07 1018 10 16 N/A
11:52 pm 23:52 Cloudy 64 17.8 56 13.3 75 75 N 15 24 30.10 1019 10 16 N/A

Powered by AerisWeather